• In Germany
  • List of Countries
  • For 7 days
  • Water Temperature
  • Satellite Maps
  • Weather Map
  • Weather Widgets
  • user-avatar
    Login

    Hourly Weather Selcy

    Today, 19 October, Friday

    Time Temperature Precipitation Wind Pressure Humidity
    00:00 +11°C° 0 mm 3 mps 759 mmHg 91%
    01:00 +11°C° 0 mm 3 mps 759 mmHg 91%
    02:00 +10°C° 0 mm 3 mps 759 mmHg 92%
    03:00 +9°C° 0 mm 3 mps 759 mmHg 92%
    04:00 +9°C° 0 mm 3 mps 760 mmHg 91%
    05:00 +8°C° 0 mm 3 mps 760 mmHg 91%
    06:00 +8°C° 0 mm 3 mps 760 mmHg 90%
    07:00 +8°C° 0 mm 3 mps 761 mmHg 89%
    08:00 +7°C° 0 mm 3 mps 761 mmHg 88%
    09:00 +8°C° 0 mm 3 mps 761 mmHg 80%
    10:00 +10°C° 0 mm 3 mps 761 mmHg 72%
    11:00 +11°C° 0 mm 3 mps 762 mmHg 64%
    12:00 +11°C° 0 mm 3 mps 762 mmHg 62%
    13:00 +11°C° 0 mm 3 mps 762 mmHg 60%
    14:00 +12°C° 0 mm 3 mps 762 mmHg 58%
    15:00 +11°C° 0 mm 3 mps 762 mmHg 63%
    16:00 +10°C° 0 mm 3 mps 762 mmHg 69%
    17:00 +8°C° 0 mm 3 mps 762 mmHg 74%
    18:00 +8°C° 0 mm 3 mps 762 mmHg 77%
    19:00 +7°C° 0 mm 3 mps 762 mmHg 80%
    20:00 +7°C° 0 mm 3 mps 762 mmHg 83%
    21:00 +5°C° 0 mm 3 mps 762 mmHg 85%
    22:00 +5°C° 0 mm 3 mps 762 mmHg 87%
    23:00 +5°C° 0 mm 3 mps 763 mmHg 89%

    Tomorrow, 20 October, Saturday

    Time Temperature Precipitation Wind Pressure Humidity
    00:00 +4°C° 0 mm 3 mps 763 mmHg 91%
    01:00 +4°C° 0 mm 3 mps 763 mmHg 92%
    02:00 +5°C° 0 mm 2 mps 763 mmHg 93%
    03:00 +5°C° 0 mm 2 mps 763 mmHg 94%
    04:00 +4°C° 0 mm 2 mps 763 mmHg 94%
    05:00 +4°C° 0 mm 2 mps 763 mmHg 94%
    06:00 +4°C° 0 mm 2 mps 763 mmHg 94%
    07:00 +4°C° 0 mm 2 mps 763 mmHg 94%
    08:00 +5°C° 0 mm 2 mps 763 mmHg 93%
    09:00 +6°C° 0 mm 2 mps 763 mmHg 88%
    10:00 +7°C° 0 mm 2 mps 763 mmHg 82%
    11:00 +8°C° 0 mm 2 mps 763 mmHg 77%
    12:00 +9°C° 0 mm 2 mps 763 mmHg 75%
    13:00 +9°C° 0 mm 2 mps 762 mmHg 72%
    14:00 +9°C° 0 mm 2 mps 762 mmHg 70%
    15:00 +10°C° 0 mm 1 mps 762 mmHg 74%
    16:00 +9°C° 0 mm 1 mps 762 mmHg 77%
    17:00 +8°C° 0 mm 1 mps 762 mmHg 80%
    18:00 +8°C° 0 mm 1 mps 762 mmHg 82%
    19:00 +7°C° 0 mm 0 mps 762 mmHg 83%
    20:00 +6°C° 0 mm 0 mps 762 mmHg 85%
    21:00 +6°C° 0 mm 0 mps 762 mmHg 86%
    22:00 +6°C° 0 mm 0 mps 762 mmHg 87%
    23:00 +5°C° 0 mm 0 mps 762 mmHg 89%

    Day after tomorrow, 21 October, Sunday

    Time Temperature Precipitation Wind Pressure Humidity
    00:00 +5°C° 0 mm 0 mps 762 mmHg 90%
    01:00 +5°C° 0 mm 0 mps 762 mmHg 91%
    02:00 +4°C° 0 mm 0 mps 763 mmHg 92%
    03:00 +4°C° 0 mm 0 mps 763 mmHg 92%
    04:00 +4°C° 0 mm 0 mps 763 mmHg 92%
    05:00 +4°C° 0 mm 0 mps 763 mmHg 93%
    06:00 +4°C° 0 mm 0 mps 763 mmHg 92%
    07:00 +4°C° 0 mm 0 mps 763 mmHg 92%
    08:00 +4°C° 0 mm 0 mps 764 mmHg 92%
    09:00 +6°C° 0 mm 0 mps 764 mmHg 85%
    10:00 +7°C° 0 mm 0 mps 764 mmHg 78%
    11:00 +10°C° 0 mm 1 mps 764 mmHg 72%
    12:00 +10°C° 0 mm 1 mps 764 mmHg 69%
    13:00 +11°C° 0 mm 1 mps 764 mmHg 67%
    14:00 +11°C° 0 mm 1 mps 764 mmHg 65%
    15:00 +10°C° 0 mm 1 mps 764 mmHg 70%
    16:00 +9°C° 0 mm 1 mps 764 mmHg 75%
    17:00 +7°C° 0 mm 1 mps 764 mmHg 81%
    18:00 +6°C° 0 mm 2 mps 764 mmHg 83%
    19:00 +6°C° 0 mm 2 mps 764 mmHg 84%
    20:00 +5°C° 0 mm 2 mps 764 mmHg 86%
    21:00 +4°C° 0 mm 3 mps 764 mmHg 87%
    22:00 +4°C° 0 mm 3 mps 764 mmHg 88%
    23:00 +4°C° 0 mm 3 mps 764 mmHg 90%

    22 October, Monday

    Time Temperature Precipitation Wind Pressure Humidity
    00:00 +4°C° 0 mm 3 mps 763 mmHg 90%
    01:00 +4°C° 0 mm 4 mps 763 mmHg 90%
    02:00 +4°C° 0 mm 4 mps 763 mmHg 90%
    03:00 +4°C° 0 mm 4 mps 762 mmHg 91%
    04:00 +4°C° 0 mm 4 mps 762 mmHg 91%
    05:00 +4°C° 0 mm 4 mps 761 mmHg 91%
    06:00 +3°C° 0 mm 5 mps 761 mmHg 90%
    07:00 +3°C° 0 mm 5 mps 760 mmHg 90%
    08:00 +3°C° 0 mm 6 mps 760 mmHg 89%
    09:00 +4°C° 0 mm 6 mps 760 mmHg 84%
    10:00 +5°C° 0 mm 6 mps 759 mmHg 79%
    11:00 +8°C° 0 mm 6 mps 759 mmHg 74%
    12:00 +8°C° 0.2 mm 6 mps 758 mmHg 75%
    13:00 +8°C° 0.2 mm 6 mps 757 mmHg 76%
    14:00 +8°C° 0.2 mm 6 mps 757 mmHg 77%
    15:00 +8°C° 0.1 mm 6 mps 757 mmHg 79%
    16:00 +8°C° 0.1 mm 6 mps 757 mmHg 81%
    17:00 +8°C° 0.1 mm 5 mps 756 mmHg 84%
    18:00 +7°C° 0.1 mm 5 mps 756 mmHg 85%
    19:00 +7°C° 0.1 mm 4 mps 756 mmHg 87%
    20:00 +7°C° 0.1 mm 4 mps 756 mmHg 88%
    21:00 +6°C° 0 mm 4 mps 756 mmHg 89%
    22:00 +7°C° 0 mm 3 mps 756 mmHg 90%
    23:00 +5°C° 0 mm 3 mps 757 mmHg 91%

    23 October, Tuesday

    Time Temperature Precipitation Wind Pressure Humidity
    00:00 +5°C° 0 mm 3 mps 757 mmHg 91%
    01:00 +4°C° 0 mm 3 mps 757 mmHg 92%
    02:00 +5°C° 0 mm 2 mps 757 mmHg 92%
    03:00 +4°C° 0 mm 2 mps 756 mmHg 92%
    04:00 +4°C° 0 mm 2 mps 756 mmHg 93%
    05:00 +3°C° 0 mm 2 mps 756 mmHg 93%
    06:00 +3°C° 0 mm 2 mps 756 mmHg 93%
    07:00 +3°C° 0 mm 2 mps 756 mmHg 92%
    08:00 +3°C° 0 mm 2 mps 756 mmHg 92%
    09:00 +5°C° 0 mm 2 mps 756 mmHg 86%
    10:00 +6°C° 0 mm 2 mps 756 mmHg 80%
    11:00 +7°C° 0 mm 2 mps 756 mmHg 73%
    12:00 +8°C° 0 mm 2 mps 755 mmHg 71%
    13:00 +8°C° 0 mm 2 mps 755 mmHg 68%
    14:00 +8°C° 0 mm 3 mps 754 mmHg 65%
    15:00 +7°C° 0 mm 3 mps 754 mmHg 70%
    16:00 +5°C° 0 mm 3 mps 753 mmHg 76%
    17:00 +4°C° 0 mm 3 mps 753 mmHg 81%
    18:00 +4°C° 0.1 mm 3 mps 752 mmHg 81%
    19:00 +4°C° 0.1 mm 4 mps 751 mmHg 81%
    20:00 +4°C° 0.1 mm 4 mps 750 mmHg 81%
    21:00 +3°C° 0.2 mm 5 mps 749 mmHg 81%
    22:00 +3°C° 0.2 mm 5 mps 748 mmHg 81%
    23:00 +4°C° 0.2 mm 6 mps 747 mmHg 81%

    24 October, Wednesday

    Time Temperature Precipitation Wind Pressure Humidity
    00:00 +3°C° 0.6 mm 5 mps 746 mmHg 83%
    01:00 +3°C° 0.6 mm 5 mps 745 mmHg 85%
    02:00 +3°C° 0.6 mm 5 mps 744 mmHg 87%
    03:00 +3°C° 0.2 mm 5 mps 743 mmHg 88%
    04:00 +4°C° 0.2 mm 4 mps 742 mmHg 89%
    05:00 +4°C° 0.2 mm 3 mps 741 mmHg 91%
    06:00 +4°C° 0.2 mm 3 mps 740 mmHg 91%
    07:00 +5°C° 0.2 mm 2 mps 739 mmHg 92%
    08:00 +5°C° 0.2 mm 2 mps 739 mmHg 92%
    09:00 +5°C° 0.2 mm 2 mps 738 mmHg 89%
    10:00 +7°C° 0.2 mm 1 mps 738 mmHg 86%
    11:00 +7°C° 0.2 mm 1 mps 737 mmHg 82%
    12:00 +7°C° 0.3 mm 1 mps 737 mmHg 82%
    13:00 +6°C° 0.3 mm 2 mps 737 mmHg 82%
    14:00 +6°C° 0.3 mm 2 mps 736 mmHg 82%
    15:00 +5°C° 0.4 mm 3 mps 737 mmHg 83%
    16:00 +5°C° 0.4 mm 3 mps 737 mmHg 85%
    17:00 +4°C° 0.4 mm 4 mps 738 mmHg 86%
    18:00 +4°C° 0.2 mm 4 mps 738 mmHg 86%
    19:00 +3°C° 0.2 mm 5 mps 739 mmHg 86%
    20:00 +3°C° 0.2 mm 5 mps 739 mmHg 85%
    21:00 +3°C° 0.1 mm 6 mps 740 mmHg 84%
    22:00 +3°C° 0.1 mm 6 mps 741 mmHg 83%
    23:00 +3°C° 0.1 mm 6 mps 741 mmHg 82%
    Show more